• In Belgium
  • List of Countries
  • For 7 days
  • Water Temperature
  • Satellite Maps
  • Weather Map
  • Weather Widgets
  • user-avatar
    Login

    Hourly Weather Nagor'e

    Today, 23 July, Monday

    Time Temperature Precipitation Wind Pressure Humidity
    00:00 +23°C° 0.1 mm 1 mps 738 mmHg 76%
    01:00 +22°C° 0 mm 1 mps 738 mmHg 78%
    02:00 +22°C° 0 mm 1 mps 738 mmHg 79%
    03:00 +22°C° 0 mm 1 mps 738 mmHg 81%
    04:00 +22°C° 0 mm 1 mps 738 mmHg 82%
    05:00 +22°C° 0 mm 1 mps 738 mmHg 82%
    06:00 +22°C° 0 mm 1 mps 738 mmHg 83%
    07:00 +23°C° 0.1 mm 2 mps 738 mmHg 77%
    08:00 +25°C° 0.1 mm 2 mps 739 mmHg 72%
    09:00 +26°C° 0.1 mm 2 mps 739 mmHg 67%
    10:00 +27°C° 0.2 mm 3 mps 739 mmHg 63%
    11:00 +28°C° 0.2 mm 3 mps 739 mmHg 58%
    12:00 +29°C° 0.2 mm 3 mps 739 mmHg 54%
    13:00 +30°C° 0.2 mm 3 mps 739 mmHg 52%
    14:00 +30°C° 0.2 mm 3 mps 739 mmHg 51%
    15:00 +30°C° 0.2 mm 3 mps 739 mmHg 49%
    16:00 +30°C° 0 mm 3 mps 739 mmHg 51%
    17:00 +30°C° 0 mm 2 mps 739 mmHg 53%
    18:00 +29°C° 0 mm 2 mps 739 mmHg 55%
    19:00 +28°C° 0 mm 1 mps 739 mmHg 59%
    20:00 +26°C° 0 mm 1 mps 740 mmHg 63%
    21:00 +23°C° 0 mm 0 mps 740 mmHg 66%
    22:00 +22°C° 0 mm 0 mps 740 mmHg 68%
    23:00 +22°C° 0 mm 0 mps 740 mmHg 69%

    Tomorrow, 24 July, Tuesday

    Time Temperature Precipitation Wind Pressure Humidity
    00:00 +23°C° 0 mm 1 mps 740 mmHg 71%
    01:00 +23°C° 0 mm 1 mps 740 mmHg 72%
    02:00 +22°C° 0 mm 1 mps 741 mmHg 73%
    03:00 +21°C° 0 mm 2 mps 741 mmHg 74%
    04:00 +21°C° 0 mm 2 mps 741 mmHg 75%
    05:00 +22°C° 0 mm 1 mps 741 mmHg 75%
    06:00 +23°C° 0 mm 1 mps 741 mmHg 75%
    07:00 +24°C° 0 mm 1 mps 741 mmHg 70%
    08:00 +26°C° 0 mm 2 mps 742 mmHg 65%
    09:00 +28°C° 0 mm 2 mps 742 mmHg 59%
    10:00 +29°C° 0.1 mm 3 mps 742 mmHg 56%
    11:00 +30°C° 0.1 mm 3 mps 742 mmHg 52%
    12:00 +32°C° 0.1 mm 4 mps 742 mmHg 49%
    13:00 +32°C° 0.1 mm 4 mps 742 mmHg 50%
    14:00 +32°C° 0.1 mm 4 mps 742 mmHg 51%
    15:00 +32°C° 0.1 mm 4 mps 742 mmHg 52%
    16:00 +29°C° 1.2 mm 4 mps 742 mmHg 59%
    17:00 +28°C° 1.2 mm 4 mps 742 mmHg 65%
    18:00 +27°C° 1.2 mm 4 mps 742 mmHg 72%
    19:00 +26°C° 1.1 mm 4 mps 742 mmHg 76%
    20:00 +23°C° 1.1 mm 4 mps 742 mmHg 81%
    21:00 +22°C° 1.1 mm 4 mps 742 mmHg 85%
    22:00 +22°C° 1 mm 4 mps 742 mmHg 87%
    23:00 +21°C° 1 mm 4 mps 742 mmHg 90%

    Day after tomorrow, 25 July, Wednesday

    Time Temperature Precipitation Wind Pressure Humidity
    00:00 +21°C° 1 mm 4 mps 742 mmHg 92%
    01:00 +21°C° 1.3 mm 4 mps 742 mmHg 93%
    02:00 +21°C° 1.3 mm 4 mps 742 mmHg 94%
    03:00 +21°C° 1.3 mm 4 mps 741 mmHg 94%
    04:00 +21°C° 0.7 mm 4 mps 741 mmHg 94%
    05:00 +21°C° 0.7 mm 4 mps 741 mmHg 94%
    06:00 +21°C° 0.7 mm 4 mps 741 mmHg 94%
    07:00 +22°C° 0.7 mm 4 mps 741 mmHg 90%
    08:00 +23°C° 0.7 mm 5 mps 742 mmHg 85%
    09:00 +25°C° 0.7 mm 5 mps 742 mmHg 80%
    10:00 +26°C° 1.3 mm 5 mps 742 mmHg 76%
    11:00 +27°C° 1.3 mm 5 mps 742 mmHg 71%
    12:00 +28°C° 1.3 mm 5 mps 742 mmHg 67%
    13:00 +29°C° 0.8 mm 5 mps 742 mmHg 66%
    14:00 +29°C° 0.8 mm 6 mps 742 mmHg 65%
    15:00 +30°C° 0.8 mm 6 mps 742 mmHg 63%
    16:00 +29°C° 0.6 mm 5 mps 742 mmHg 66%
    17:00 +28°C° 0.6 mm 4 mps 742 mmHg 69%
    18:00 +28°C° 0.6 mm 3 mps 742 mmHg 71%
    19:00 +27°C° 0.2 mm 3 mps 743 mmHg 73%
    20:00 +25°C° 0.2 mm 3 mps 743 mmHg 75%
    21:00 +24°C° 0.2 mm 3 mps 743 mmHg 77%
    22:00 +24°C° 0.5 mm 3 mps 743 mmHg 78%
    23:00 +22°C° 0.5 mm 4 mps 743 mmHg 79%

    26 July, Thursday

    Time Temperature Precipitation Wind Pressure Humidity
    00:00 +21°C° 0.5 mm 4 mps 743 mmHg 80%
    01:00 +21°C° 0.7 mm 4 mps 743 mmHg 80%
    02:00 +21°C° 0.7 mm 4 mps 743 mmHg 80%
    03:00 +20°C° 0.7 mm 3 mps 743 mmHg 79%
    04:00 +20°C° 0.3 mm 4 mps 743 mmHg 78%
    05:00 +20°C° 0.3 mm 4 mps 743 mmHg 77%
    06:00 +20°C° 0.3 mm 4 mps 744 mmHg 76%
    07:00 +22°C° 0 mm 5 mps 744 mmHg 71%
    08:00 +23°C° 0 mm 5 mps 744 mmHg 65%
    09:00 +26°C° 0 mm 6 mps 744 mmHg 60%
    10:00 +27°C° 0 mm 6 mps 744 mmHg 58%
    11:00 +28°C° 0 mm 6 mps 744 mmHg 55%
    12:00 +29°C° 0 mm 5 mps 745 mmHg 53%
    13:00 +29°C° 0 mm 5 mps 744 mmHg 55%
    14:00 +29°C° 0 mm 6 mps 744 mmHg 56%
    15:00 +29°C° 0 mm 6 mps 744 mmHg 57%
    16:00 +29°C° 0 mm 6 mps 745 mmHg 58%
    17:00 +29°C° 0 mm 5 mps 745 mmHg 59%
    18:00 +29°C° 0 mm 5 mps 745 mmHg 59%
    19:00 +28°C° 0 mm 6 mps 745 mmHg 59%
    20:00 +27°C° 0 mm 6 mps 745 mmHg 58%
    21:00 +26°C° 0 mm 7 mps 745 mmHg 58%
    22:00 +26°C° 0 mm 6 mps 745 mmHg 57%
    23:00 +24°C° 0 mm 6 mps 746 mmHg 57%

    27 July, Friday

    Time Temperature Precipitation Wind Pressure Humidity
    00:00 +25°C° 0 mm 5 mps 746 mmHg 56%
    01:00 +23°C° 0.1 mm 5 mps 746 mmHg 58%
    02:00 +23°C° 0.1 mm 5 mps 746 mmHg 60%
    03:00 +22°C° 0.1 mm 5 mps 746 mmHg 61%
    04:00 +22°C° 0.2 mm 5 mps 746 mmHg 64%
    05:00 +22°C° 0.2 mm 5 mps 746 mmHg 66%
    06:00 +21°C° 0.2 mm 5 mps 746 mmHg 68%
    07:00 +23°C° 0 mm 5 mps 746 mmHg 65%
    08:00 +24°C° 0 mm 6 mps 746 mmHg 63%
    09:00 +26°C° 0 mm 6 mps 746 mmHg 60%
    10:00 +27°C° 0 mm 6 mps 747 mmHg 57%
    11:00 +28°C° 0 mm 7 mps 747 mmHg 53%
    12:00 +29°C° 0 mm 7 mps 747 mmHg 50%
    13:00 +30°C° 0 mm 7 mps 747 mmHg 49%
    14:00 +30°C° 0 mm 7 mps 747 mmHg 49%
    15:00 +31°C° 0 mm 8 mps 746 mmHg 48%
    16:00 +29°C° 0 mm 7 mps 747 mmHg 52%
    17:00 +28°C° 0 mm 6 mps 747 mmHg 56%
    18:00 +27°C° 0 mm 6 mps 747 mmHg 60%
    19:00 +26°C° 0 mm 6 mps 747 mmHg 61%
    20:00 +25°C° 0 mm 5 mps 747 mmHg 63%
    21:00 +22°C° 0 mm 5 mps 747 mmHg 64%
    22:00 +22°C° 0.1 mm 5 mps 747 mmHg 62%
    23:00 +23°C° 0.1 mm 5 mps 746 mmHg 61%

    28 July, Saturday

    Time Temperature Precipitation Wind Pressure Humidity
    00:00 +23°C° 0.1 mm 6 mps 746 mmHg 59%
    01:00 +22°C° 0 mm 5 mps 746 mmHg 60%
    02:00 +22°C° 0 mm 5 mps 746 mmHg 60%
    03:00 +22°C° 0 mm 5 mps 746 mmHg 60%
    04:00 +22°C° 0 mm 5 mps 746 mmHg 62%
    05:00 +22°C° 0 mm 5 mps 746 mmHg 63%
    06:00 +21°C° 0 mm 5 mps 746 mmHg 65%
    07:00 +22°C° 0 mm 5 mps 746 mmHg 63%
    08:00 +23°C° 0 mm 5 mps 746 mmHg 61%
    09:00 +25°C° 0 mm 5 mps 746 mmHg 60%
    10:00 +26°C° 0 mm 5 mps 746 mmHg 58%
    11:00 +28°C° 0 mm 5 mps 746 mmHg 56%
    12:00 +29°C° 0 mm 5 mps 746 mmHg 54%
    13:00 +30°C° 0 mm 5 mps 746 mmHg 50%
    14:00 +32°C° 0 mm 6 mps 746 mmHg 46%
    15:00 +33°C° 0 mm 6 mps 746 mmHg 41%
    16:00 +32°C° 0 mm 6 mps 746 mmHg 45%
    17:00 +30°C° 0 mm 5 mps 746 mmHg 49%
    18:00 +30°C° 0 mm 5 mps 746 mmHg 52%
    19:00 +28°C° 0 mm 5 mps 747 mmHg 55%
    20:00 +26°C° 0 mm 4 mps 747 mmHg 57%
    21:00 +23°C° 0 mm 4 mps 747 mmHg 59%
    22:00 +23°C° 0 mm 4 mps 747 mmHg 59%
    23:00 +22°C° 0 mm 4 mps 747 mmHg 60%
    Show more